Back to catalog

BLOCK DM-SL R/B

AliveGTO
NORAD 33208·ROCKET BODY· XX

Launched Jul 16, 2008 from Sea Launch Platform

Loading…

TLE

AgingSource: Space-Track

Epoch: Sep 14, 2026, 08:42 UTC

1 33208U 08035B   26257.36295175 -.00000081  00000-0  20139-2 0  9999
2 33208   0.0939 180.4959 7130551 162.8983  64.8687  2.26260603150152

Track BLOCK DM-SL R/B in real time with AllMySat

Download on the App Store